Location: Cosy Dell
(34.2789°N, 117.4537°W)
Time: 00:55:06
(UTC+00:00)

Cosmos 1674 Rocket - Pass Details

Date: 14 July 2020
Orbit: 602 x 631 km, 82.5° (Epoch: 12 August)

Event Time Altitude Azimuth Distance (km) Brightness Sun altitude
Rises 10:50:10 0° 348° (NNW) 2,871 7.5 -20.5°
Reaches altitude 10° 10:52:24 10° 345° (NNW) 1,960 6.5 -20.1°
Maximum altitude 10:56:40 59° 266° (W) 699 3.5 -19.5°
Enters shadow 10:57:35 47° 217° (SW) 801 3.7 -19.4°
